Home   Weather   Fredrikstad   Past weeks
Flag for Norway

Past Weather in Fredrikstad, Norway — Yesterday and Last 2 Weeks

Now
61 °F

Sunny.


Feels Like: 61 °F
Forecast: 71 / 53 °F
Wind: 10 mph from North

Location: Rygge

Current Time: Jun 27, 2019 at 10:49:23 am

Latest Report: Jun 27, 2019 at 9:50 am


Visibility: 10 mi

Pressure: 30.18 "Hg

Humidity: 55%

Dew Point: 45 °F

Location of FredrikstadLocation

Past Weather in Fredrikstad — Graph

°F

Fredrikstad Temperature Yesterday

Maximum temperature yesterday: 72 °F (at 4:50 pm)
Minimum temperature yesterday: 54 °F (at 1:20 am)
Average temperature yesterday: 61 °F

High & Low Weather Summary for the Past Weeks

 TemperatureHumidityPressure
High77 °F (Jun 15, 3:50 pm)100% (Jun 13, 3:20 am)30.39 "Hg (Jun 13, 3:20 am)
Low48 °F (Jun 13, 12:20 am)41% (Jun 24, 4:50 pm)29.65 "Hg (Jun 20, 1:50 am)
Average59 °F77%30.02 "Hg
* Reported Jun 12 9:20 am — Jun 27 9:20 am, Fredrikstad. Weather by CustomWeather, © 2019

Note: Actual official high and low records may vary slightly from our data, if they occured in-between our weather recording intervals... More about our weather records

Advertising

Fredrikstad Weather History for the Previous 24 Hours

Scroll right to see more
 ConditionsComfort  
Time TempWeatherWind HumidityBarometerVisibility
9:20 am
Thu, Jun 27
59 °FPassing clouds.10 mph59%30.18 "HgN/A
8:50 am57 °FPassing clouds.10 mph63%30.15 "HgN/A
8:20 am55 °FSunny.7 mph77%30.15 "Hg10 mi
7:50 am55 °FOvercast.8 mph77%30.15 "HgN/A
7:20 am55 °FOvercast.8 mph77%30.15 "HgN/A
6:50 am54 °FPartly sunny.9 mph82%30.12 "HgN/A
6:20 am54 °FOvercast.9 mph82%30.12 "HgN/A
5:50 am54 °FPartly sunny.8 mph82%30.12 "HgN/A
5:20 am54 °FMostly cloudy.10 mph88%30.09 "HgN/A
4:50 am55 °FScattered clouds.10 mph82%30.09 "HgN/A
4:20 am55 °FCool.10 mph88%30.09 "HgN/A
3:50 am55 °FCool.10 mph94%30.07 "HgN/A
3:20 am54 °FFog.6 mph100%30.07 "Hg2 mi
2:50 am54 °FCool.2 mph100%30.07 "HgN/A
2:20 am55 °FCool.3 mph94%30.04 "HgN/A
1:50 am55 °FCool.3 mph94%30.04 "HgN/A
1:20 am55 °FPassing clouds.5 mph100%30.04 "HgN/A
12:50 am57 °FMostly cloudy.3 mph94%30.04 "HgN/A
12:20 am57 °FPassing clouds.3 mph94%30.04 "HgN/A
11:50 pm
Wed, Jun 26
57 °FLight rain. Passing clouds.5 mph94%30.04 "Hg6 mi
11:20 pm59 °FPartly cloudy.9 mph88%30.04 "HgN/A
10:50 pm63 °FThunderstorms. Passing clouds.13 mph73%30.04 "HgN/A
10:23 pm63 °FThunderstorms. Partly sunny.13 mph88%30.04 "HgN/A
9:50 pm63 °FPassing clouds.7 mph83%30.01 "HgN/A
9:20 pm63 °FMild.9 mph83%30.01 "HgN/A
8:50 pm64 °FMild.10 mph83%30.01 "HgN/A
7:50 pm64 °FMild.12 mph78%30.01 "HgN/A
7:20 pm66 °FSunny.9 mph73%30.01 "Hg10 mi
6:50 pm68 °FSunny.9 mph73%30.01 "Hg10 mi
6:20 pm68 °FSunny.10 mph69%30.04 "Hg10 mi
5:50 pm68 °FSunny.10 mph69%30.04 "Hg10 mi
5:20 pm70 °FPassing clouds.7 mph69%30.04 "HgN/A
4:50 pm72 °FPassing clouds.9 mph61%30.04 "HgN/A
4:20 pm70 °FPassing clouds.6 mph64%30.04 "HgN/A
3:50 pm68 °FPassing clouds.6 mph69%30.04 "HgN/A
3:20 pm70 °FPassing clouds.7 mph64%30.07 "HgN/A
2:50 pm70 °FPassing clouds.6 mph64%30.07 "HgN/A
2:20 pm70 °FPassing clouds.2 mph60%30.07 "HgN/A
1:50 pm70 °FScattered clouds.6 mph64%30.07 "HgN/A
1:20 pm68 °FPassing clouds.5 mph64%30.07 "HgN/A
12:50 pm68 °FPassing clouds.3 mph69%30.09 "HgN/A
12:20 pm66 °FPassing clouds.5 mph68%30.09 "HgN/A
11:50 am64 °FPassing clouds.6 mph73%30.09 "HgN/A
11:20 am64 °FScattered clouds.2 mph83%30.09 "HgN/A
10:50 am61 °FBroken clouds.3 mph88%30.09 "HgN/A
10:20 am59 °FBroken clouds.5 mph94%30.12 "HgN/A
Weather by CustomWeather, © 2019

See weather overview